User: anonymous   Login
Location: Unspecified
(0.0000°N, 0.0000°E)
Time: 17:44:30
(UTC+00:00)
Language:

Astrid 2 - Orbit

View from above orbital plane
View from above orbital plane
View from above satellite
View from above satellite

Ground track
Ground track

The orbit data is extracted from the following two-line orbital elements,

1 25568U 98072B   18197.96396101 +.00000035 +00000-0 +22044-4 0  9997
2 25568 082.9485 056.1461 0024302 200.9226 283.9536 13.72538574981345
Epoch (UTC): 16 July 2018 23:08:06
Eccentricity: 0.0024302
inclination: 82.9485°
perigee height: 972 km
apogee height: 1008 km
right ascension of ascending node: 56.1461°
argument of perigee: 200.9226°
revolutions per day: 13.72538574
mean anomaly at epoch: 283.9536°
orbit number at epoch: 98134

The dashed part of the orbit path shows where the satellite is in the earth's shadow,  

DLR